| time (UTC) | temp C | wind direction | speed KPH | gust KPH | rain 1hr cm | rain 24hr cm | rain mn cm | humidity % | barometer mb |
| 20260507131058 | 8 | 13 | 4.8 | 8.0 | 0.00 | 0.00 | 0.00 | 91 | 1018.9 |
| 20260507122657 | 8 | 12 | 4.8 | 6.4 | 0.00 | 0.00 | 0.00 | 91 | 1018.9 |
| 20260507113157 | 9 | 5 | 6.4 | 9.7 | 0.00 | 0.00 | 0.00 | 90 | 1019.3 |
| 20260507105858 | 9 | 11 | 6.4 | 9.7 | 0.00 | 0.00 | 0.00 | 89 | 1019.3 |
| 20260507084656 | 10 | 16 | 8.0 | 12.9 | 0.00 | 0.00 | 0.00 | 89 | 1020.0 |
| 20260507081357 | 10 | 360 | 6.4 | 9.7 | 0.00 | 0.00 | 0.00 | 89 | 1019.9 |
| 20260507080256 | 10 | 355 | 4.8 | 8.0 | 0.00 | 0.00 | 0.00 | 89 | 1019.9 |
| 20260507075157 | 10 | 355 | 4.8 | 8.0 | 0.00 | 0.00 | 0.00 | 89 | 1019.9 |
| 20260507074056 | 10 | 355 | 4.8 | 8.0 | 0.00 | 0.00 | 0.00 | 89 | 1019.9 |
| 20260507070756 | 10 | 330 | 3.2 | 6.4 | 0.00 | 0.00 | 0.00 | 89 | 1019.8 |
| 20260507065656 | 10 | 322 | 3.2 | 6.4 | 0.00 | 0.00 | 0.00 | 89 | 1019.9 |
| 20260507064556 | 10 | 319 | 4.8 | 8.0 | 0.00 | 0.00 | 0.00 | 88 | 1019.9 |
| 20260507062356 | 11 | 325 | 3.2 | 6.4 | 0.00 | 0.00 | 0.00 | 88 | 1019.9 |
| 20260507061256 | 11 | 324 | 4.8 | 9.7 | 0.00 | 0.00 | 0.00 | 87 | 1019.9 |
| 20260507060156 | 11 | 296 | 0.0 | 6.4 | 0.00 | 0.00 | 0.00 | 87 | 1019.9 |
| 20260507055056 | 11 | 234 | 1.6 | 4.8 | 0.00 | 0.00 | 0.00 | 87 | 1019.9 |
| 20260507052856 | 11 | 232 | 0.0 | 0.0 | 0.00 | 0.00 | 0.00 | 86 | 1019.9 |
| 20260507051756 | 11 | 232 | 1.6 | 3.2 | 0.00 | 0.00 | 0.00 | 87 | 1020.0 |
| 20260507050656 | 11 | 232 | 1.6 | 3.2 | 0.00 | 0.00 | 0.00 | 86 | 1020.0 |
| 20260507045556 | 11 | 232 | 1.6 | 4.8 | 0.00 | 0.00 | 0.00 | 86 | 1020.0 |
| 20260507042257 | 12 | 205 | 3.2 | 4.8 | 0.00 | 0.00 | 0.00 | 85 | 1019.8 |
| 20260507035000 | 12 | 231 | 4.8 | 9.7 | 0.00 | 0.00 | 0.00 | 84 | 1019.5 |
| 20260507033857 | 12 | 217 | 6.4 | 9.7 | 0.00 | 0.00 | 0.00 | 83 | 1019.2 |
| 20260507032757 | 13 | 223 | 4.8 | 9.7 | 0.00 | 0.00 | 0.00 | 82 | 1019.1 |
| 20260507031658 | 13 | 269 | 4.8 | 11.3 | 0.00 | 0.00 | 0.00 | 81 | 1019.1 |
| 20260507030557 | 14 | 275 | 6.4 | 12.9 | 0.00 | 0.00 | 0.00 | 81 | 1019.1 |
| 20260507025500 | 15 | 261 | 6.4 | 11.3 | 0.00 | 0.00 | 0.00 | 80 | 1019.0 |
| 20260507024358 | 15 | 290 | 6.4 | 14.5 | 0.00 | 0.00 | 0.00 | 78 | 1018.9 |
| 20260507023256 | 16 | 259 | 9.7 | 14.5 | 0.00 | 0.00 | 0.00 | 77 | 1018.9 |
| 20260507022156 | 16 | 271 | 9.7 | 19.3 | 0.00 | 0.00 | 0.00 | 75 | 1018.9 |
| 20260507020001 | 17 | 317 | 3.2 | 8.0 | 0.00 | 0.00 | 0.00 | 76 | 1018.9 |
| 20260507014856 | 17 | 283 | 4.8 | 11.3 | 0.00 | 0.00 | 0.00 | 74 | 1018.9 |
| 20260507013756 | 17 | 5 | 4.8 | 6.4 | 0.00 | 0.00 | 0.00 | 75 | 1018.9 |
| 20260507012656 | 17 | 306 | 1.6 | 4.8 | 0.00 | 0.00 | 0.00 | 75 | 1018.9 |
| 20260507011556 | 17 | 306 | 3.2 | 6.4 | 0.00 | 0.00 | 0.00 | 73 | 1018.9 |
| 20260507010500 | 17 | 296 | 6.4 | 9.7 | 0.00 | 0.00 | 0.00 | 74 | 1019.0 |
| 20260507005356 | 17 | 267 | 6.4 | 11.3 | 0.00 | 0.00 | 0.00 | 70 | 1019.0 |
| 20260507004256 | 18 | 250 | 6.4 | 14.5 | 0.00 | 0.00 | 0.00 | 72 | 1019.1 |
| 20260507003156 | 18 | 173 | 6.4 | 12.9 | 0.00 | 0.00 | 0.00 | 74 | 1019.1 |
| 20260507002056 | 18 | 355 | 6.4 | 9.7 | 0.00 | 0.00 | 0.00 | 74 | 1019.0 |
| 20260506234756 | 17 | 267 | 9.7 | 17.7 | 0.00 | 0.00 | 0.00 | 74 | 1019.1 |
| 20260506233656 | 17 | 316 | 9.7 | 17.7 | 0.00 | 0.00 | 0.00 | 74 | 1019.1 |
| 20260506232556 | 17 | 306 | 6.4 | 17.7 | 0.00 | 0.00 | 0.00 | 75 | 1019.2 |
| 20260506230356 | 17 | 253 | 8.0 | 19.3 | 0.00 | 0.00 | 0.00 | 76 | 1019.2 |
| 20260506225256 | 17 | 322 | 6.4 | 14.5 | 0.00 | 0.00 | 0.00 | 77 | 1019.2 |
| 20260506224156 | 17 | 294 | 11.3 | 19.3 | 0.00 | 0.00 | 0.00 | 78 | 1019.3 |
| 20260506223056 | 17 | 268 | 6.4 | 16.1 | 0.00 | 0.00 | 0.00 | 78 | 1019.3 |
| 20260506220856 | 16 | 278 | 8.0 | 16.1 | 0.00 | 0.00 | 0.00 | 80 | 1019.6 |
| 20260506215756 | 16 | 305 | 8.0 | 14.5 | 0.00 | 0.00 | 0.00 | 81 | 1019.6 |
| 20260506214656 | 16 | 253 | 4.8 | 12.9 | 0.00 | 0.00 | 0.00 | 79 | 1019.6 |
| 20260506211356 | 15 | 323 | 4.8 | 12.9 | 0.00 | 0.00 | 0.00 | 85 | 1019.7 |
| 20260506205156 | 15 | 341 | 8.0 | 16.1 | 0.00 | 0.00 | 0.00 | 85 | 1020.0 |
| 20260506204056 | 15 | 331 | 6.4 | 12.9 | 0.00 | 0.00 | 0.00 | 85 | 1020.0 |
| 20260506201856 | 15 | 261 | 6.4 | 12.9 | 0.00 | 0.00 | 0.00 | 83 | 1020.1 |
| 20260506200756 | 14 | 276 | 1.6 | 6.4 | 0.00 | 0.00 | 0.00 | 85 | 1020.0 |
| 20260506195656 | 13 | 219 | 4.8 | 11.3 | 0.00 | 0.00 | 0.00 | 86 | 1020.1 |
| 20260506194556 | 13 | 224 | 8.0 | 17.7 | 0.00 | 0.00 | 0.00 | 86 | 1020.0 |
| 20260506192356 | 13 | 281 | 3.2 | 8.0 | 0.00 | 0.00 | 0.00 | 90 | 1020.0 |
| 20260506191256 | 12 | 281 | 3.2 | 8.0 | 0.00 | 0.00 | 0.00 | 91 | 1020.2 |
| 20260506190156 | 12 | 338 | 4.8 | 9.7 | 0.00 | 0.00 | 0.00 | 91 | 1020.2 |
| 20260506185056 | 12 | 247 | 4.8 | 12.9 | 0.00 | 0.00 | 0.00 | 91 | 1020.1 |
| 20260506184000 | 12 | 240 | 3.2 | 6.4 | 0.00 | 0.00 | 0.00 | 91 | 1020.0 |
| 20260506182856 | 12 | 274 | 4.8 | 11.3 | 0.00 | 0.00 | 0.00 | 91 | 1019.9 |
| 20260506181756 | 12 | 199 | 1.6 | 4.8 | 0.00 | 0.00 | 0.00 | 93 | 1019.8 |
| 20260506180656 | 11 | 267 | 4.8 | 11.3 | 0.00 | 0.00 | 0.00 | 92 | 1019.9 |
| 20260506175556 | 11 | 321 | 6.4 | 12.9 | 0.00 | 0.00 | 0.00 | 93 | 1020.0 |
| 20260506173356 | 11 | 298 | 9.7 | 16.1 | 0.00 | 0.00 | 0.00 | 92 | 1020.0 |
| 20260506172256 | 12 | 308 | 8.0 | 14.5 | 0.00 | 0.00 | 0.00 | 92 | 1019.6 |
| 20260506171156 | 12 | 292 | 11.3 | 16.1 | 0.00 | 0.00 | 0.00 | 91 | 1019.6 |
| 20260506170056 | 12 | 320 | 9.7 | 16.1 | 0.00 | 0.00 | 0.00 | 90 | 1019.6 |
| 20260506163856 | 12 | 111 | 6.4 | 14.5 | 0.00 | 0.00 | 0.00 | 95 | 1019.4 |
| 20260506162756 | 11 | 98 | 9.7 | 17.7 | 0.00 | 0.00 | 0.00 | 97 | 1019.0 |
| 20260506161656 | 10 | 143 | 11.3 | 17.7 | 0.00 | 0.00 | 0.00 | 96 | 1019.1 |
| 20260506160556 | 10 | 182 | 6.4 | 11.3 | 0.00 | 0.00 | 0.00 | 95 | 1019.4 |
| 20260506154356 | 10 | 267 | 11.3 | 17.7 | 0.00 | 0.00 | 0.00 | 94 | 1020.0 |
| 20260506153256 | 10 | 273 | 8.0 | 14.5 | 0.00 | 0.00 | 0.00 | 93 | 1019.9 |
| 20260506152156 | 10 | 259 | 12.9 | 22.5 | 0.00 | 0.00 | 0.00 | 92 | 1019.9 |